START_TIME,STEP,MOV.,M6,t_acc.,M7,t_acc.,M19,t_acc.,H36,t_acc.
1979-07-20 15:00:26.870 ,0,0,0.,12.0,0.,12.0,0.,12.0,0.,12.0
1979-07-20 15:00:38.870 ,0,0,0.,12.0,0.,12.0,0.,12.0,0.,12.0
1979-07-20 15:00:50.870 ,2,1,0.,12.0,0.,12.0,0.,12.0,0.,12.0
1979-07-20 15:01:02.870 ,2,1,0.,12.0,0.,12.0,0.,12.0,0.,12.0
1979-07-20 15:01:14.870 ,2,0,0.,12.0,0.,12.0,0.,12.0,0.,12.0
1979-07-20 15:01:26.870 ,2,0,0.,12.0,0.,12.0,0.,12.0,0.,12.0
1979-07-20 15:01:38.870 ,3,1,,0,,0,,0,,0
1979-07-20 15:01:50.870 ,3,1,0.,12.0,0.,12.0,0.,12.0,0.,12.0
1979-07-20 15:02:02.870 ,3,0,0.,12.0,0.,12.0,0.,12.0,0.,12.0
1979-07-20 15:02:14.870 ,3,0,0.,12.0,0.,12.0,0.,12.0,0.,12.0
1979-07-20 15:02:26.870 ,4,1,0.,12.0,0.,12.0,0.,12.0,0.,12.0
1979-07-20 15:02:38.870 ,4,1,0.,12.0,0.,12.0,0.,12.0,0.,12.0
1979-07-20 15:02:50.870 ,4,0,0.,12.0,0.,12.0,0.,12.0,0.,12.0
1979-07-20 15:03:02.870 ,4,0,0.,12.0,0.,12.0,0.,12.0,0.,12.0
1979-07-20 15:03:14.870 ,5,1,0.,12.0,0.,12.0,0.,12.0,0.,12.0
1979-07-20 15:03:26.870 ,5,1,0.,12.0,0.,12.0,0.,12.0,0.,12.0
1979-07-20 15:03:38.870 ,5,0,0.,12.0,0.,12.0,0.,12.0,0.,12.0
1979-07-20 15:03:50.870 ,5,0,0.,12.0,0.,12.0,0.,12.0,0.,12.0
1979-07-20 15:04:02.870 ,6,1,0.,12.0,0.,12.0,0.,12.0,0.,12.0
1979-07-20 15:04:14.870 ,6,1,0.,12.0,0.,12.0,0.,12.0,0.,12.0
1979-07-20 15:04:26.870 ,6,0,0.,12.0,0.,12.0,0.,12.0,0.,12.0
1979-07-20 15:04:38.870 ,6,0,0.,12.0,0.,12.0,0.,12.0,0.,12.0
1979-07-20 15:04:50.870 ,7,1,0.,12.0,0.,12.0,0.,12.0,0.,12.0
1979-07-20 15:05:02.870 ,7,1,0.,12.0,0.,12.0,0.,12.0,0.,12.0
1979-07-20 15:05:14.870 ,7,0,0.,12.0,0.,12.0,0.,12.0,0.,12.0
1979-07-20 15:05:26.870 ,7,0,0.,12.0,0.,12.0,0.,12.0,0.,12.0
1979-07-20 15:05:38.870 ,7,1,0.,12.0,0.,12.0,0.,12.0,0.,12.0
1979-07-20 15:05:50.870 ,7,1,0.,12.0,0.,12.0,0.,12.0,0.,12.0
1979-07-20 15:06:02.870 ,7,0,0.,12.0,0.,12.0,0.,12.0,0.,12.0
1979-07-20 15:06:14.870 ,7,0,0.,12.0,0.,12.0,0.,12.0,0.,12.0
1979-07-20 15:06:26.870 ,6,1,0.,12.0,0.,12.0,0.,12.0,0.,12.0
1979-07-20 15:06:38.870 ,6,1,0.,12.0,0.,12.0,0.,12.0,0.,12.0
1979-07-20 15:06:50.870 ,6,0,0.,12.0,0.,12.0,0.,12.0,0.,12.0
1979-07-20 15:07:02.870 ,6,0,0.,12.0,0.,12.0,0.,12.0,0.,12.0
1979-07-20 15:07:14.870 ,5,1,0.,12.0,0.,12.0,0.,12.0,0.,12.0
1979-07-20 15:07:26.870 ,5,1,0.,12.0,0.,12.0,0.,12.0,0.,12.0
1979-07-20 15:07:38.870 ,5,0,0.,12.0,0.,12.0,0.,12.0,0.,12.0
1979-07-20 15:07:50.870 ,5,0,0.,12.0,0.,12.0,0.,12.0,0.,12.0
1979-07-20 15:08:02.870 ,4,1,0.,12.0,0.,12.0,0.,12.0,0.,12.0
1979-07-20 15:08:14.870 ,4,1,0.,12.0,0.,12.0,0.,12.0,0.,12.0
1979-07-20 15:08:26.870 ,4,0,0.,12.0,0.,12.0,0.,12.0,0.,12.0
1979-07-20 15:08:38.870 ,4,0,0.,12.0,0.,12.0,0.,12.0,0.,12.0
1979-07-20 15:08:50.870 ,3,1,0.,12.0,0.,12.0,0.,12.0,0.,12.0
1979-07-20 15:09:02.870 ,3,1,0.,12.0,0.,12.0,0.,12.0,0.,12.0
1979-07-20 15:09:14.870 ,3,0,0.,12.0,0.,12.0,0.,12.0,0.,12.0
1979-07-20 15:09:26.870 ,3,0,0.,12.0,0.,12.0,0.,12.0,0.,12.0
1979-07-20 15:09:38.870 ,2,1,0.,12.0,0.,12.0,0.,12.0,0.,12.0
1979-07-20 15:09:50.870 ,2,1,0.,12.0,0.,12.0,0.,12.0,0.,12.0
1979-07-20 15:10:02.870 ,2,0,0.,12.0,0.,12.0,0.,12.0,0.,12.0
1979-07-20 15:10:14.870 ,2,0,0.,12.0,0.,12.0,0.,12.0,0.,12.0
1979-07-20 15:10:26.870 ,1,1,0.,12.0,0.,12.0,0.,12.0,0.,12.0
1979-07-20 15:10:38.870 ,1,1,0.,12.0,0.,12.0,0.,12.0,0.,12.0
1979-07-20 15:10:50.870 ,1,0,0.,12.0,0.,12.0,0.,12.0,0.,12.0
1979-07-20 15:11:02.870 ,1,0,0.,12.0,0.,12.0,0.,12.0,0.,12.0
1979-07-20 15:11:14.870 ,0,1,0.,12.0,0.,12.0,0.,12.0,0.,12.0
1979-07-20 15:11:26.870 ,0,1,0.,12.0,0.,12.0,0.,12.0,0.,12.0
1979-07-20 15:11:38.870 ,0,0,0.,12.0,0.,12.0,0.,12.0,0.,12.0
1979-07-20 15:11:50.870 ,0,0,0.,12.0,0.,12.0,0.,12.0,0.,12.0
1979-07-20 15:12:02.870 ,0,1,0.,12.0,0.,12.0,0.,12.0,0.,12.0
1979-07-20 15:12:14.870 ,0,1,0.,12.0,0.,12.0,0.,12.0,0.,12.0
1979-07-20 15:12:26.870 ,0,0,0.,12.0,0.,12.0,0.,12.0,0.,12.0
1979-07-20 15:12:38.870 ,0,0,0.,12.0,0.,12.0,0.,12.0,0.,12.0
1979-07-20 15:12:50.870 ,1,1,0.,12.0,0.,12.0,0.,12.0,0.,12.0
1979-07-20 15:13:02.870 ,1,1,0.,12.0,0.,12.0,0.,12.0,0.,12.0
1979-07-20 15:13:14.870 ,1,0,0.,12.0,0.,12.0,0.,12.0,0.,12.0
1979-07-20 15:13:26.870 ,1,0,0.,12.0,0.,12.0,0.,12.0,0.,12.0
1979-07-20 15:13:38.870 ,2,1,0.,12.0,0.,12.0,0.,12.0,0.,12.0
1979-07-20 15:13:50.870 ,2,1,0.,12.0,0.,12.0,0.,12.0,0.,12.0
1979-07-20 15:14:02.870 ,2,0,0.,12.0,0.,12.0,0.,12.0,0.,12.0
1979-07-20 15:14:14.870 ,2,0,1.,12.0,0.,12.0,0.,12.0,0.,12.0
1979-07-20 15:14:26.870 ,3,1,0.,12.0,0.,12.0,0.,12.0,0.,12.0
1979-07-20 15:14:38.870 ,3,1,0.,12.0,0.,12.0,0.,12.0,0.,12.0
1979-07-20 15:14:50.870 ,3,0,0.,12.0,0.,12.0,0.,12.0,0.,12.0
1979-07-20 15:15:02.870 ,3,0,0.,12.0,0.,12.0,0.,12.0,0.,12.0
1979-07-20 15:15:14.870 ,4,1,0.,12.0,0.,12.0,0.,12.0,0.,12.0
1979-07-20 15:15:26.870 ,4,1,0.,12.0,0.,12.0,0.,12.0,0.,12.0
1979-07-20 15:15:38.870 ,4,0,0.,12.0,0.,12.0,0.,12.0,0.,12.0
1979-07-20 15:15:50.870 ,4,0,0.,12.0,0.,12.0,0.,12.0,0.,12.0
1979-07-20 15:16:02.870 ,5,1,0.,12.0,0.,12.0,0.,12.0,0.,12.0
1979-07-20 15:16:14.870 ,5,1,0.,12.0,0.,12.0,0.,12.0,0.,12.0
1979-07-20 15:16:26.870 ,5,0,0.,12.0,0.,12.0,0.,12.0,0.,12.0
1979-07-20 15:16:38.870 ,5,0,0.,12.0,0.,12.0,0.,12.0,0.,12.0
1979-07-20 15:16:50.860 ,6,1,0.,12.0,0.,12.0,0.,12.0,0.,12.0
1979-07-20 15:17:02.870 ,6,1,0.,12.0,0.,12.0,0.,12.0,0.,12.0
1979-07-20 15:17:14.860 ,6,0,,0,,0,,0,,0
1979-07-20 15:17:26.860 ,6,0,,0,,0,,0,,0
1979-07-20 15:17:38.860 ,7,1,0.,12.0,0.,12.0,0.,12.0,0.,12.0
1979-07-20 15:17:50.860 ,7,1,0.,12.0,0.,12.0,0.,12.0,0.,12.0
1979-07-20 15:18:02.860 ,7,0,0.,12.0,0.,12.0,0.,12.0,0.,12.0
1979-07-20 15:18:14.860 ,7,0,0.,12.0,0.,12.0,0.,12.0,0.,12.0
1979-07-20 15:18:26.860 ,0,0,0.,12.0,0.,12.0,0.,12.0,0.,12.0
1979-07-20 15:18:38.860 ,0,0,0.,12.0,0.,12.0,0.,12.0,0.,12.0
1979-07-20 15:18:50.860 ,0,0,0.,12.0,0.,12.0,0.,12.0,0.,12.0
1979-07-20 15:19:02.860 ,0,0,0.,12.0,0.,12.0,0.,12.0,0.,12.0
1979-07-20 15:19:14.860 ,6,1,0.,12.0,0.,12.0,0.,12.0,0.,12.0
1979-07-20 15:19:26.860 ,6,1,0.,12.0,0.,12.0,0.,12.0,0.,12.0
1979-07-20 15:19:38.860 ,0,0,0.,12.0,0.,12.0,0.,12.0,0.,12.0
1979-07-20 15:19:50.860 ,0,0,0.,12.0,0.,12.0,0.,12.0,0.,12.0
1979-07-20 15:20:04.060 ,5,1,0.,12.0,0.,12.0,0.,12.0,0.,12.0
1979-07-20 15:20:16.060 ,5,1,0.,12.0,0.,12.0,0.,12.0,0.,12.0
1979-07-20 15:20:26.860 ,5,0,0.,12.0,0.,12.0,0.,12.0,0.,12.0
1979-07-20 15:20:38.860 ,5,0,0.,12.0,0.,12.0,0.,12.0,0.,12.0
1979-07-20 15:20:50.860 ,4,1,0.,12.0,0.,12.0,0.,12.0,0.,12.0
1979-07-20 15:21:02.860 ,4,1,0.,12.0,0.,12.0,0.,12.0,0.,12.0
1979-07-20 15:21:14.860 ,4,0,0.,12.0,0.,12.0,0.,12.0,0.,12.0
1979-07-20 15:21:26.860 ,4,0,0.,12.0,0.,12.0,0.,12.0,0.,12.0
1979-07-20 15:21:38.860 ,3,1,0.,12.0,0.,12.0,0.,12.0,0.,12.0
1979-07-20 15:21:50.860 ,3,1,0.,12.0,0.,12.0,0.,12.0,0.,12.0
1979-07-20 15:22:02.860 ,3,0,0.,12.0,0.,12.0,0.,12.0,0.,12.0
1979-07-20 15:22:14.860 ,3,0,0.,12.0,0.,12.0,0.,12.0,0.,12.0
1979-07-20 15:22:26.860 ,2,1,0.,12.0,0.,12.0,0.,12.0,0.,12.0
1979-07-20 15:22:38.860 ,2,1,0.,12.0,0.,12.0,0.,12.0,0.,12.0
1979-07-20 15:22:50.860 ,2,0,0.,12.0,0.,12.0,0.,12.0,0.,12.0
1979-07-20 15:23:02.860 ,2,0,0.,12.0,0.,12.0,0.,12.0,0.,12.0
1979-07-20 15:23:14.860 ,1,1,1.,12.0,0.,12.0,0.,12.0,0.,12.0
1979-07-20 15:23:26.860 ,1,1,0.,12.0,0.,12.0,0.,12.0,0.,12.0
1979-07-20 15:23:38.860 ,1,0,0.,12.0,0.,12.0,0.,12.0,0.,12.0
1979-07-20 15:23:50.860 ,1,0,0.,12.0,0.,12.0,0.,12.0,0.,12.0
1979-07-20 15:24:02.860 ,0,1,0.,12.0,0.,12.0,0.,12.0,0.,12.0
1979-07-20 15:24:14.860 ,0,1,0.,12.0,0.,12.0,0.,12.0,0.,12.0
1979-07-20 15:24:26.860 ,0,0,0.,12.0,0.,12.0,0.,12.0,0.,12.0
1979-07-20 15:24:38.860 ,0,0,0.,12.0,0.,12.0,0.,12.0,0.,12.0
1979-07-20 15:24:50.860 ,0,1,0.,12.0,0.,12.0,0.,12.0,0.,12.0
1979-07-20 15:25:02.860 ,0,1,0.,12.0,0.,12.0,0.,12.0,0.,12.0
1979-07-20 15:25:14.860 ,0,0,0.,12.0,0.,12.0,0.,12.0,0.,12.0
1979-07-20 15:25:26.860 ,0,0,0.,12.0,0.,12.0,0.,12.0,0.,12.0
1979-07-20 15:25:38.860 ,1,1,0.,12.0,0.,12.0,0.,12.0,0.,12.0
1979-07-20 15:25:50.860 ,1,1,0.,12.0,0.,12.0,0.,12.0,0.,12.0
1979-07-20 15:26:02.860 ,1,0,0.,12.0,0.,12.0,0.,12.0,0.,12.0
1979-07-20 15:26:14.860 ,1,0,0.,12.0,0.,12.0,0.,12.0,0.,12.0
1979-07-20 15:26:26.860 ,2,1,0.,12.0,0.,12.0,0.,12.0,0.,12.0
1979-07-20 15:26:38.860 ,2,1,0.,12.0,0.,12.0,0.,12.0,0.,12.0
1979-07-20 15:26:50.860 ,2,0,0.,12.0,0.,12.0,0.,12.0,0.,12.0
1979-07-20 15:27:02.860 ,2,0,0.,12.0,0.,12.0,0.,12.0,0.,12.0
1979-07-20 15:27:14.860 ,3,1,0.,12.0,0.,12.0,0.,12.0,0.,12.0
1979-07-20 15:27:26.860 ,3,1,0.,12.0,0.,12.0,0.,12.0,0.,12.0
1979-07-20 15:27:38.860 ,3,0,0.,12.0,0.,12.0,0.,12.0,0.,12.0
1979-07-20 15:27:50.860 ,3,0,0.,12.0,0.,12.0,0.,12.0,0.,12.0
1979-07-20 15:28:02.860 ,4,1,0.,12.0,0.,12.0,0.,12.0,0.,12.0
1979-07-20 15:28:14.860 ,4,1,0.,12.0,0.,12.0,0.,12.0,0.,12.0
1979-07-20 15:28:26.860 ,4,0,0.,12.0,0.,12.0,0.,12.0,0.,12.0
1979-07-20 15:28:38.860 ,4,0,0.,12.0,0.,12.0,0.,12.0,0.,12.0
1979-07-20 15:28:50.860 ,5,1,0.,12.0,0.,12.0,0.,12.0,0.,12.0
1979-07-20 15:29:02.860 ,5,1,0.,12.0,0.,12.0,0.,12.0,0.,12.0
1979-07-20 15:29:14.860 ,5,0,0.,12.0,0.,12.0,0.,12.0,0.,12.0
1979-07-20 15:29:26.860 ,5,0,0.,12.0,0.,12.0,0.,12.0,0.,12.0
1979-07-20 15:29:38.860 ,6,1,0.,12.0,0.,12.0,0.,12.0,0.,12.0
1979-07-20 15:29:50.860 ,6,1,0.,12.0,0.,12.0,0.,12.0,0.,12.0
1979-07-20 15:30:02.860 ,6,0,0.,12.0,0.,12.0,0.,12.0,0.,12.0
1979-07-20 15:30:14.860 ,6,0,0.,12.0,0.,12.0,0.,12.0,0.,12.0
1979-07-20 15:30:26.860 ,7,0,0.,12.0,0.,12.0,0.,12.0,0.,12.0
1979-07-20 15:30:38.860 ,7,0,0.,12.0,0.,12.0,0.,12.0,0.,12.0
1979-07-20 15:30:50.860 ,7,0,0.,12.0,0.,12.0,0.,12.0,0.,12.0
1979-07-20 15:31:02.860 ,7,0,0.,12.0,0.,12.0,0.,12.0,0.,12.0
1979-07-20 15:31:14.860 ,4,1,0.,12.0,0.,12.0,0.,12.0,0.,12.0
1979-07-20 15:31:26.860 ,4,1,0.,12.0,0.,12.0,0.,12.0,0.,12.0
1979-07-20 15:31:38.860 ,0,1,0.,12.0,0.,12.0,0.,12.0,0.,12.0
1979-07-20 15:31:50.860 ,0,1,0.,12.0,0.,12.0,0.,12.0,0.,12.0
1979-07-20 15:32:02.860 ,3,1,0.,12.0,0.,12.0,0.,12.0,0.,12.0
1979-07-20 15:32:14.860 ,3,1,0.,12.0,0.,12.0,0.,12.0,0.,12.0
1979-07-20 15:32:26.860 ,7,1,0.,12.0,0.,12.0,0.,12.0,0.,12.0
1979-07-20 15:32:38.860 ,7,1,0.,12.0,0.,12.0,0.,12.0,0.,12.0
1979-07-20 15:32:50.860 ,4,1,0.,12.0,0.,12.0,0.,12.0,0.,12.0
1979-07-20 15:33:02.860 ,4,1,0.,12.0,0.,12.0,0.,12.0,0.,12.0
1979-07-20 15:33:14.860 ,0,1,0.,12.0,0.,12.0,0.,12.0,0.,12.0
1979-07-20 15:33:26.860 ,0,1,0.,12.0,0.,12.0,0.,12.0,0.,12.0
1979-07-20 15:33:38.860 ,3,1,0.,12.0,0.,12.0,0.,12.0,0.,12.0
1979-07-20 15:33:50.860 ,3,1,0.,12.0,0.,12.0,0.,12.0,0.,12.0
1979-07-20 15:34:02.860 ,7,1,0.,12.0,0.,12.0,0.,12.0,0.,12.0
1979-07-20 15:34:14.860 ,7,1,0.,12.0,0.,12.0,0.,12.0,0.,12.0
1979-07-20 15:34:26.860 ,4,1,0.,12.0,0.,12.0,0.,12.0,0.,12.0
1979-07-20 15:34:38.860 ,4,1,0.,12.0,0.,12.0,0.,12.0,0.,12.0
1979-07-20 15:34:50.860 ,0,1,0.,12.0,0.,12.0,0.,12.0,0.,12.0
1979-07-20 15:35:02.860 ,0,1,0.,12.0,0.,12.0,0.,12.0,0.,12.0
1979-07-20 15:35:14.860 ,3,1,1.,12.0,0.,12.0,0.,12.0,0.,12.0
1979-07-20 15:35:26.860 ,3,1,0.,12.0,0.,12.0,0.,12.0,0.,12.0
1979-07-20 15:35:38.860 ,7,1,0.,12.0,0.,12.0,0.,12.0,0.,12.0
1979-07-20 15:35:50.860 ,7,1,0.,12.0,0.,12.0,0.,12.0,0.,12.0
1979-07-20 15:36:02.860 ,4,1,0.,12.0,0.,12.0,0.,12.0,0.,12.0
1979-07-20 15:36:14.860 ,4,1,0.,12.0,0.,12.0,0.,12.0,0.,12.0
1979-07-20 15:36:26.860 ,0,1,0.,12.0,0.,12.0,0.,12.0,0.,12.0
1979-07-20 15:36:38.860 ,0,1,0.,12.0,0.,12.0,0.,12.0,0.,12.0
1979-07-20 15:36:50.860 ,3,1,0.,12.0,0.,12.0,0.,12.0,0.,12.0
1979-07-20 15:37:02.860 ,3,1,0.,12.0,0.,12.0,0.,12.0,0.,12.0
1979-07-20 15:37:14.860 ,7,1,0.,12.0,0.,12.0,0.,12.0,0.,12.0
1979-07-20 15:37:26.860 ,7,1,0.,12.0,0.,12.0,0.,12.0,0.,12.0
1979-07-20 15:37:38.860 ,4,1,0.,12.0,0.,12.0,0.,12.0,0.,12.0
1979-07-20 15:37:50.860 ,4,1,0.,12.0,0.,12.0,0.,12.0,0.,12.0
1979-07-20 15:38:02.860 ,0,1,0.,12.0,0.,12.0,0.,12.0,0.,12.0
1979-07-20 15:38:14.860 ,0,1,0.,12.0,0.,12.0,0.,12.0,0.,12.0
1979-07-20 15:38:26.860 ,3,1,0.,12.0,0.,12.0,0.,12.0,0.,12.0
1979-07-20 15:38:38.860 ,3,1,0.,12.0,0.,12.0,0.,12.0,0.,12.0
1979-07-20 15:38:50.860 ,7,1,0.,12.0,0.,12.0,0.,12.0,0.,12.0
1979-07-20 15:39:02.860 ,7,1,0.,12.0,0.,12.0,0.,12.0,0.,12.0
1979-07-20 15:39:14.860 ,4,1,0.,12.0,0.,12.0,0.,12.0,0.,12.0
1979-07-20 15:39:26.860 ,4,1,0.,12.0,0.,12.0,0.,12.0,0.,12.0
1979-07-20 15:39:38.860 ,0,1,0.,12.0,0.,12.0,0.,12.0,0.,12.0
1979-07-20 15:39:50.860 ,0,1,0.,12.0,0.,12.0,0.,12.0,0.,12.0
1979-07-20 15:40:02.860 ,3,1,0.,12.0,0.,12.0,0.,12.0,0.,12.0
1979-07-20 15:40:14.860 ,3,1,0.,12.0,0.,12.0,0.,12.0,0.,12.0
1979-07-20 15:40:26.860 ,7,1,0.,12.0,0.,12.0,0.,12.0,0.,12.0
1979-07-20 15:40:38.860 ,7,1,0.,12.0,0.,12.0,0.,12.0,0.,12.0
1979-07-20 15:40:50.860 ,4,1,0.,12.0,0.,12.0,0.,12.0,0.,12.0
1979-07-20 15:41:02.860 ,4,1,0.,12.0,0.,12.0,0.,12.0,0.,12.0
1979-07-20 15:41:14.860 ,0,1,0.,12.0,0.,12.0,0.,12.0,0.,12.0
1979-07-20 15:41:26.860 ,0,1,0.,12.0,0.,12.0,0.,12.0,0.,12.0
1979-07-20 15:41:38.860 ,0,0,0.,12.0,0.,12.0,0.,12.0,0.,12.0
1979-07-20 15:41:50.860 ,0,0,0.,12.0,0.,12.0,0.,12.0,0.,12.0
1979-07-20 15:42:02.860 ,0,0,0.,12.0,0.,12.0,0.,12.0,0.,12.0
1979-07-20 15:42:14.860 ,0,0,0.,12.0,0.,12.0,0.,12.0,0.,12.0
1979-07-20 15:42:26.860 ,5,1,0.,12.0,0.,12.0,0.,12.0,0.,12.0
1979-07-20 15:42:38.860 ,5,1,0.,12.0,0.,12.0,0.,12.0,0.,12.0
1979-07-20 15:42:50.860 ,5,0,0.,12.0,0.,12.0,0.,12.0,0.,12.0
1979-07-20 15:43:02.860 ,5,0,0.,12.0,0.,12.0,0.,12.0,0.,12.0
1979-07-20 15:43:14.860 ,4,1,0.,12.0,0.,12.0,0.,12.0,0.,12.0
1979-07-20 15:43:26.860 ,4,1,0.,12.0,0.,12.0,0.,12.0,0.,12.0
1979-07-20 15:43:38.860 ,4,0,0.,12.0,0.,12.0,0.,12.0,0.,12.0
1979-07-20 15:43:50.860 ,4,0,0.,12.0,0.,12.0,0.,12.0,0.,12.0
1979-07-20 15:44:02.860 ,3,1,0.,12.0,0.,12.0,0.,12.0,0.,12.0
1979-07-20 15:44:14.860 ,3,1,0.,12.0,0.,12.0,0.,12.0,0.,12.0
1979-07-20 15:44:26.860 ,3,0,0.,12.0,0.,12.0,0.,12.0,0.,12.0
1979-07-20 15:44:38.860 ,3,0,0.,12.0,0.,12.0,0.,12.0,0.,12.0
1979-07-20 15:44:50.860 ,2,1,0.,12.0,0.,12.0,0.,12.0,0.,12.0
1979-07-20 15:45:02.860 ,2,1,0.,12.0,0.,12.0,0.,12.0,0.,12.0
1979-07-20 15:45:14.860 ,2,0,0.,12.0,0.,12.0,0.,12.0,0.,12.0
1979-07-20 15:45:26.860 ,2,0,0.,12.0,0.,12.0,0.,12.0,0.,12.0
1979-07-20 15:45:38.860 ,1,1,0.,12.0,0.,12.0,0.,12.0,0.,12.0
1979-07-20 15:45:50.860 ,1,1,0.,12.0,0.,12.0,0.,12.0,0.,12.0
1979-07-20 15:46:02.860 ,1,0,0.,12.0,0.,12.0,0.,12.0,0.,12.0
1979-07-20 15:46:14.860 ,1,0,0.,12.0,0.,12.0,0.,12.0,0.,12.0
1979-07-20 15:46:26.860 ,0,1,0.,12.0,0.,12.0,0.,12.0,0.,12.0
1979-07-20 15:46:38.860 ,0,1,0.,12.0,0.,12.0,0.,12.0,0.,12.0
1979-07-20 15:46:50.860 ,0,0,0.,12.0,0.,12.0,0.,12.0,0.,12.0
1979-07-20 15:47:02.860 ,0,0,0.,12.0,0.,12.0,0.,12.0,0.,12.0
1979-07-20 15:47:14.860 ,0,1,0.,12.0,0.,12.0,0.,12.0,0.,12.0
1979-07-20 15:47:26.860 ,0,1,0.,12.0,0.,12.0,0.,12.0,0.,12.0
1979-07-20 15:47:38.860 ,0,0,0.,12.0,0.,12.0,0.,12.0,0.,12.0
1979-07-20 15:47:50.860 ,0,0,0.,12.0,0.,12.0,0.,12.0,0.,12.0
1979-07-20 15:48:02.860 ,1,1,0.,12.0,0.,12.0,0.,12.0,0.,12.0
1979-07-20 15:48:14.860 ,1,1,0.,12.0,0.,12.0,0.,12.0,0.,12.0
1979-07-20 15:48:26.860 ,1,0,0.,12.0,0.,12.0,0.,12.0,0.,12.0
1979-07-20 15:48:38.860 ,1,0,0.,12.0,0.,12.0,0.,12.0,0.,12.0
1979-07-20 15:48:50.860 ,2,1,0.,12.0,0.,12.0,0.,12.0,0.,12.0
1979-07-20 15:49:02.860 ,2,1,0.,12.0,0.,12.0,0.,12.0,0.,12.0
1979-07-20 15:49:14.860 ,2,0,0.,12.0,0.,12.0,0.,12.0,0.,12.0
1979-07-20 15:49:26.860 ,2,0,0.,12.0,0.,12.0,0.,12.0,0.,12.0
1979-07-20 15:49:38.860 ,3,1,0.,12.0,0.,12.0,0.,12.0,0.,12.0
1979-07-20 15:49:50.860 ,3,1,0.,12.0,0.,12.0,0.,12.0,0.,12.0
1979-07-20 15:50:02.860 ,3,0,0.,12.0,0.,12.0,0.,12.0,0.,12.0
1979-07-20 15:50:14.860 ,3,0,0.,12.0,0.,12.0,0.,12.0,0.,12.0
1979-07-20 15:50:26.860 ,4,1,0.,12.0,0.,12.0,0.,12.0,0.,12.0
1979-07-20 15:50:38.860 ,4,1,0.,12.0,0.,12.0,0.,12.0,0.,12.0
1979-07-20 15:50:50.860 ,4,0,0.,12.0,0.,12.0,0.,12.0,0.,12.0
1979-07-20 15:51:02.860 ,4,0,0.,12.0,0.,12.0,0.,12.0,0.,12.0
1979-07-20 15:51:14.860 ,5,1,0.,12.0,0.,12.0,0.,12.0,0.,12.0
1979-07-20 15:51:26.860 ,5,1,0.,12.0,0.,12.0,0.,12.0,0.,12.0
1979-07-20 15:51:38.860 ,5,0,0.,12.0,0.,12.0,0.,12.0,0.,12.0
1979-07-20 15:51:50.860 ,5,0,0.,12.0,0.,12.0,0.,12.0,0.,12.0
1979-07-20 15:52:02.860 ,6,1,0.,12.0,0.,12.0,0.,12.0,0.,12.0
1979-07-20 15:52:14.860 ,6,1,0.,12.0,0.,12.0,0.,12.0,0.,12.0
1979-07-20 15:52:26.860 ,6,0,0.,12.0,0.,12.0,0.,12.0,0.,12.0
1979-07-20 15:52:38.860 ,6,0,0.,12.0,0.,12.0,0.,12.0,0.,12.0
1979-07-20 15:52:50.860 ,7,1,0.,12.0,0.,12.0,0.,12.0,0.,12.0
1979-07-20 15:53:02.860 ,7,1,0.,12.0,0.,12.0,0.,12.0,0.,12.0
1979-07-20 15:53:14.860 ,7,0,0.,12.0,0.,12.0,0.,12.0,0.,12.0
1979-07-20 15:53:26.860 ,7,0,0.,12.0,0.,12.0,0.,12.0,0.,12.0
1979-07-20 15:53:38.860 ,7,1,0.,12.0,0.,12.0,0.,12.0,0.,12.0
1979-07-20 15:53:50.860 ,7,1,0.,12.0,0.,12.0,0.,12.0,0.,12.0
1979-07-20 15:54:02.860 ,7,0,0.,12.0,0.,12.0,0.,12.0,0.,12.0
1979-07-20 15:54:14.860 ,7,0,0.,12.0,0.,12.0,0.,12.0,0.,12.0
1979-07-20 15:54:26.860 ,0,0,0.,12.0,0.,12.0,0.,12.0,0.,12.0
1979-07-20 15:54:38.860 ,0,0,0.,12.0,0.,12.0,0.,12.0,0.,12.0
1979-07-20 15:54:50.860 ,0,0,0.,12.0,0.,12.0,0.,12.0,0.,12.0
1979-07-20 15:55:02.860 ,0,0,0.,12.0,0.,12.0,0.,12.0,0.,12.0
1979-07-20 15:55:14.860 ,5,1,0.,12.0,0.,12.0,0.,12.0,0.,12.0
1979-07-20 15:55:26.860 ,5,1,0.,12.0,0.,12.0,0.,12.0,0.,12.0
1979-07-20 15:55:38.860 ,5,0,0.,12.0,0.,12.0,0.,12.0,0.,12.0
1979-07-20 15:55:50.860 ,5,0,0.,12.0,0.,12.0,0.,12.0,0.,12.0
1979-07-20 15:56:02.860 ,4,1,0.,12.0,0.,12.0,0.,12.0,0.,12.0
1979-07-20 15:56:14.860 ,4,1,0.,12.0,0.,12.0,0.,12.0,0.,12.0
1979-07-20 15:56:26.860 ,4,0,0.,12.0,0.,12.0,0.,12.0,0.,12.0
1979-07-20 15:56:38.860 ,4,0,0.,12.0,0.,12.0,0.,12.0,0.,12.0
1979-07-20 15:56:50.860 ,3,1,0.,12.0,0.,12.0,0.,12.0,0.,12.0
1979-07-20 15:57:02.860 ,3,1,0.,12.0,0.,12.0,0.,12.0,0.,12.0
1979-07-20 15:57:14.860 ,3,0,0.,12.0,0.,12.0,0.,12.0,0.,12.0
1979-07-20 15:57:26.860 ,3,0,0.,12.0,0.,12.0,0.,12.0,0.,12.0
1979-07-20 15:57:38.860 ,2,1,0.,12.0,0.,12.0,0.,12.0,0.,12.0
1979-07-20 15:57:50.860 ,2,1,0.,12.0,0.,12.0,0.,12.0,0.,12.0
1979-07-20 15:58:02.860 ,2,0,0.,12.0,0.,12.0,0.,12.0,0.,12.0
1979-07-20 15:58:14.860 ,2,0,0.,12.0,0.,12.0,0.,12.0,0.,12.0
1979-07-20 15:58:26.860 ,1,1,0.,12.0,0.,12.0,0.,12.0,0.,12.0
1979-07-20 15:58:38.860 ,1,1,0.,12.0,0.,12.0,0.,12.0,0.,12.0
1979-07-20 15:58:50.860 ,1,0,0.,12.0,0.,12.0,0.,12.0,0.,12.0
1979-07-20 15:59:02.860 ,1,0,0.,12.0,0.,12.0,0.,12.0,0.,12.0
1979-07-20 15:59:14.860 ,0,1,0.,12.0,0.,12.0,0.,12.0,0.,12.0
1979-07-20 15:59:26.860 ,0,1,0.,12.0,0.,12.0,0.,12.0,0.,12.0
1979-07-20 15:59:38.860 ,0,0,0.,12.0,0.,12.0,0.,12.0,0.,12.0
1979-07-20 15:59:50.860 ,0,0,0.,12.0,0.,12.0,0.,12.0,0.,12.0
1979-07-20 16:00:02.860 ,0,1,0.,12.0,0.,12.0,0.,12.0,0.,12.0
1979-07-20 16:00:14.860 ,0,1,0.,12.0,0.,12.0,0.,12.0,0.,12.0
1979-07-20 16:00:26.860 ,0,0,1.,12.0,0.,12.0,0.,12.0,0.,12.0
1979-07-20 16:00:38.860 ,0,0,0.,12.0,0.,12.0,0.,12.0,0.,12.0
1979-07-20 16:00:50.860 ,1,1,0.,12.0,0.,12.0,0.,12.0,0.,12.0
1979-07-20 16:01:02.860 ,1,1,0.,12.0,0.,12.0,0.,12.0,0.,12.0
1979-07-20 16:01:14.860 ,1,0,0.,12.0,0.,12.0,0.,12.0,0.,12.0
1979-07-20 16:01:26.860 ,1,0,0.,12.0,0.,12.0,0.,12.0,0.,12.0
1979-07-20 16:01:38.860 ,2,1,0.,12.0,0.,12.0,0.,12.0,0.,12.0
1979-07-20 16:01:50.860 ,2,1,0.,12.0,0.,12.0,0.,12.0,0.,12.0
1979-07-20 16:02:02.860 ,2,0,0.,12.0,0.,12.0,0.,12.0,0.,12.0
1979-07-20 16:02:14.860 ,2,0,0.,12.0,0.,12.0,0.,12.0,0.,12.0
1979-07-20 16:02:26.860 ,3,1,0.,12.0,0.,12.0,0.,12.0,0.,12.0
1979-07-20 16:02:38.860 ,3,1,0.,12.0,0.,12.0,0.,12.0,0.,12.0
1979-07-20 16:02:50.860 ,3,0,0.,12.0,0.,12.0,0.,12.0,0.,12.0
1979-07-20 16:03:02.860 ,3,0,0.,12.0,0.,12.0,0.,12.0,0.,12.0
1979-07-20 16:03:14.860 ,4,1,0.,12.0,0.,12.0,0.,12.0,0.,12.0
1979-07-20 16:03:26.860 ,4,1,0.,12.0,0.,12.0,0.,12.0,0.,12.0
1979-07-20 16:03:38.860 ,4,0,0.,12.0,0.,12.0,0.,12.0,0.,12.0
1979-07-20 16:03:50.860 ,4,0,0.,12.0,0.,12.0,0.,12.0,0.,12.0
1979-07-20 16:04:02.860 ,5,1,0.,12.0,0.,12.0,0.,12.0,0.,12.0
1979-07-20 16:04:14.860 ,5,1,0.,12.0,0.,12.0,0.,12.0,0.,12.0
1979-07-20 16:04:26.860 ,5,0,0.,12.0,0.,12.0,0.,12.0,0.,12.0
1979-07-20 16:04:38.860 ,5,0,0.,12.0,0.,12.0,0.,12.0,0.,12.0
1979-07-20 16:04:50.860 ,6,1,0.,12.0,0.,12.0,0.,12.0,0.,12.0
1979-07-20 16:05:02.860 ,6,1,0.,12.0,0.,12.0,0.,12.0,0.,12.0
1979-07-20 16:05:14.860 ,6,0,0.,12.0,0.,12.0,0.,12.0,0.,12.0
1979-07-20 16:05:26.860 ,6,0,0.,12.0,0.,12.0,0.,12.0,0.,12.0
1979-07-20 16:05:38.860 ,7,1,0.,12.0,0.,12.0,0.,12.0,0.,12.0
1979-07-20 16:05:50.860 ,7,1,0.,12.0,0.,12.0,0.,12.0,0.,12.0
1979-07-20 16:06:02.860 ,7,0,0.,12.0,0.,12.0,0.,12.0,0.,12.0
1979-07-20 16:06:14.860 ,7,0,0.,12.0,0.,12.0,0.,12.0,0.,12.0
1979-07-20 16:06:26.860 ,7,1,0.,12.0,0.,12.0,0.,12.0,0.,12.0
1979-07-20 16:06:38.860 ,7,1,0.,12.0,0.,12.0,0.,12.0,0.,12.0
1979-07-20 16:06:50.860 ,7,0,0.,12.0,0.,12.0,0.,12.0,0.,12.0
1979-07-20 16:07:02.860 ,7,0,0.,12.0,0.,12.0,0.,12.0,0.,12.0
1979-07-20 16:07:14.860 ,6,1,0.,12.0,0.,12.0,0.,12.0,0.,12.0
1979-07-20 16:07:26.860 ,6,1,0.,12.0,0.,12.0,0.,12.0,0.,12.0
1979-07-20 16:07:38.860 ,6,0,0.,12.0,0.,12.0,0.,12.0,0.,12.0
1979-07-20 16:07:50.860 ,6,0,0.,12.0,0.,12.0,0.,12.0,0.,12.0
1979-07-20 16:08:02.860 ,5,1,0.,12.0,0.,12.0,0.,12.0,0.,12.0
1979-07-20 16:08:14.860 ,5,1,0.,12.0,0.,12.0,0.,12.0,0.,12.0
1979-07-20 16:08:26.860 ,5,0,0.,12.0,0.,12.0,0.,12.0,0.,12.0
1979-07-20 16:08:38.860 ,5,0,0.,12.0,0.,12.0,0.,12.0,0.,12.0
1979-07-20 16:08:50.860 ,4,1,0.,12.0,0.,12.0,0.,12.0,0.,12.0
1979-07-20 16:09:02.860 ,4,1,0.,12.0,0.,12.0,0.,12.0,0.,12.0
1979-07-20 16:09:14.860 ,4,0,0.,12.0,0.,12.0,0.,12.0,0.,12.0
1979-07-20 16:09:26.860 ,4,0,0.,12.0,0.,12.0,0.,12.0,0.,12.0
1979-07-20 16:09:38.860 ,3,1,0.,12.0,0.,12.0,0.,12.0,0.,12.0
1979-07-20 16:09:50.860 ,3,1,0.,12.0,0.,12.0,0.,12.0,0.,12.0
1979-07-20 16:10:02.860 ,3,0,0.,12.0,0.,12.0,0.,12.0,0.,12.0
1979-07-20 16:10:14.860 ,3,0,0.,12.0,0.,12.0,0.,12.0,0.,12.0
1979-07-20 16:10:26.860 ,2,1,0.,12.0,0.,12.0,0.,12.0,0.,12.0
1979-07-20 16:10:38.860 ,2,1,0.,12.0,0.,12.0,0.,12.0,0.,12.0
1979-07-20 16:10:50.860 ,2,0,0.,12.0,0.,12.0,0.,12.0,0.,12.0
1979-07-20 16:11:02.860 ,2,0,0.,12.0,0.,12.0,0.,12.0,0.,12.0
1979-07-20 16:11:14.860 ,1,1,0.,12.0,0.,12.0,0.,12.0,0.,12.0
1979-07-20 16:11:26.860 ,1,1,0.,12.0,0.,12.0,0.,12.0,0.,12.0
1979-07-20 16:11:38.860 ,1,0,0.,12.0,0.,12.0,0.,12.0,0.,12.0
1979-07-20 16:11:50.860 ,1,0,0.,12.0,0.,12.0,0.,12.0,0.,12.0
1979-07-20 16:12:02.860 ,0,1,0.,12.0,0.,12.0,0.,12.0,0.,12.0
1979-07-20 16:12:14.860 ,0,1,0.,12.0,0.,12.0,0.,12.0,0.,12.0
1979-07-20 16:12:26.860 ,0,0,0.,12.0,0.,12.0,0.,12.0,0.,12.0
1979-07-20 16:12:38.860 ,0,0,0.,12.0,0.,12.0,0.,12.0,0.,12.0
1979-07-20 16:12:50.860 ,0,1,0.,12.0,0.,12.0,0.,12.0,0.,12.0
1979-07-20 16:13:02.860 ,0,1,0.,12.0,0.,12.0,0.,12.0,0.,12.0
1979-07-20 16:13:14.860 ,0,0,0.,12.0,0.,12.0,0.,12.0,0.,12.0
1979-07-20 16:13:26.860 ,0,0,0.,12.0,0.,12.0,0.,12.0,0.,12.0
1979-07-20 16:13:38.860 ,1,1,0.,12.0,0.,12.0,0.,12.0,0.,12.0
1979-07-20 16:13:50.860 ,1,1,0.,12.0,0.,12.0,0.,12.0,0.,12.0
1979-07-20 16:14:02.860 ,1,0,0.,12.0,0.,12.0,0.,12.0,0.,12.0
1979-07-20 16:14:14.860 ,1,0,1.,12.0,0.,12.0,0.,12.0,0.,12.0
1979-07-20 16:14:26.860 ,2,1,0.,12.0,0.,12.0,0.,12.0,0.,12.0
1979-07-20 16:14:38.860 ,2,1,0.,12.0,0.,12.0,0.,12.0,0.,12.0
1979-07-20 16:14:50.860 ,2,0,0.,12.0,0.,12.0,0.,12.0,0.,12.0
1979-07-20 16:15:02.860 ,2,0,0.,12.0,0.,12.0,0.,12.0,0.,12.0
1979-07-20 16:15:14.860 ,3,1,0.,12.0,0.,12.0,0.,12.0,0.,12.0
1979-07-20 16:15:26.860 ,3,1,0.,12.0,0.,12.0,0.,12.0,0.,12.0
1979-07-20 16:15:38.860 ,3,0,0.,12.0,0.,12.0,0.,12.0,0.,12.0
1979-07-20 16:15:50.860 ,3,0,0.,12.0,0.,12.0,0.,12.0,0.,12.0
1979-07-20 16:16:02.860 ,4,1,0.,12.0,0.,12.0,0.,12.0,0.,12.0
1979-07-20 16:16:14.860 ,4,1,0.,12.0,0.,12.0,0.,12.0,0.,12.0
1979-07-20 16:16:26.860 ,4,0,0.,12.0,0.,12.0,0.,12.0,0.,12.0
1979-07-20 16:16:38.860 ,4,0,0.,12.0,0.,12.0,0.,12.0,0.,12.0
1979-07-20 16:16:50.860 ,5,1,0.,12.0,0.,12.0,0.,12.0,0.,12.0
1979-07-20 16:17:02.860 ,5,1,0.,12.0,0.,12.0,0.,12.0,0.,12.0
1979-07-20 16:17:14.860 ,5,0,0.,12.0,0.,12.0,0.,12.0,0.,12.0
1979-07-20 16:17:26.860 ,5,0,0.,12.0,0.,12.0,0.,12.0,0.,12.0
1979-07-20 16:17:38.860 ,6,1,0.,12.0,0.,12.0,0.,12.0,0.,12.0